www.pogodaiklimat.ru

Погода и климат >> Архив погоды >> Россия >> Ямало-Ненецкий АО >> Марресаля


АРХИВ ПОГОДЫ в Марресале

Время (UTC), дата Ветер
(напр.,м/с)
 
Видим.   Явления Облачность Т
(С)
Тd
(С)
f
(%)
Тe
(С)
Тes
(С)
Комфортность P
(гПа)
Po
(гПа)
Тmin
(С)
Tmax
(С)
R
(мм)
R24
(мм)
S
(см)
06 19.08 ЮЗ 5 4000 м дымка 10/10 800 м
[Sc]
+9.8 +9.5 98 +6 +6 1026.7 1023.5
09 19.08 ЮЗ 3 4000 м дымка {ливн. осадки} 9/4 600 м
[Sc Ac trans]
+10.7 +10.7 100 +8 +10 1026.9 1023.8
12 19.08 ЮЗ 2 4000 м дымка {ливн. осадки} 8/3 600 м
[Sc Ac trans]
+11.1 +11.0 99 +10 +11 1027.3 1024.2
15 19.08 З 2 4000 м дымка 3/0
[Ac trans]
+11.2 +10.7 97 +10 +10 1027.5 1024.4 +12.2 1
18 19.08 СЗ 2 4000 м дымка ясно +10.1 +10.1 100 +8 +8 1028.0 1024.9
21 19.08 З 2 4000 м дымка 1/1 600 м
[Sc]
+9.3 +9.3 100 +7 +7 1028.0 1024.9
00 20.08 СЗ 2 4000 м дымка 3/0
[Ac trans Ci fib]
+8.8 +8.8 100 +7 +7 1028.3 1025.1
03 20.08 С 2 4000 м дымка 3/0
[Ac trans Ci fib]
+11.1 +11.0 99 +10 +12 1028.6 1025.5 +8.6
06 20.08 СЗ 2 20 км 3/0
[Ac trans Ci fib]
+14.8 +12.1 84 +14 +19 1028.1 1025.0
09 20.08 СЗ 2 20 км ясно +15.3 +12.3 82 +15 +21 1027.5 1024.5
12 20.08 ЮЗ 2 20 км 3/1 600 м
[Cu hum Ci fib]
+13.6 +12.0 90 +13 +15 1027.5 1024.4
15 20.08 Ю 3 20 км ясно +12.1 +11.6 97 +10 +10 1026.9 1023.8 +15.6
18 20.08 ЮВ 5 4000 м дымка 3/0
[Ci fib]
+10.6 +10.6 100 +7 +7 1026.7 1023.6
21 20.08 ЮВ 6 1000 м дымка 10/10 180 м
[St]
+11.0 +11.0 100 +8 +8 1026.0 1022.9
00 21.08 В 6 2000 м дымка 1/0
[Ac trans]
+10.4 +10.4 100 +7 +7 1024.9 1021.8
03 21.08 ЮВ 7 4000 м дымка 8/3 600 м
[Sc Ci fib]
+12.4 +12.3 99 +9 +10 1023.9 1020.8 +10.4
06 21.08 ЮВ 5 20 км 9/0
[Ci fib]
+13.7 +12.4 92 +12 +14 1023.0 1019.9
09 21.08 Ю 5 20 км ясно +17.0 +14.6 86 +16 +19 1021.8 1018.8 +15.6
12 21.08 ЮВ 7 20 км 3/1 600 м
[Cu hum Ci fib]
+16.3 +13.1 81 +15 +15 1020.3 1017.2
15 21.08 ЮВ 6 20 км 10/0
[Ac trans Ci fib]
+14.0 +10.9 82 +12 +12 1018.7 1015.6 +17.1
18 21.08 ЮВ 7 20 км 4/1 600 м
[Sc diur, vesp Ac trans Ci fib]
+12.8 +11.0 89 +10 +10 1017.1 1014.0
21 21.08 Ю 6 20 км 8/0
[Ac As Ci fib]
+11.9 +10.5 91 +9 +9 1015.6 1012.5
00 22.08 Ю 5 20 км 9/3 600 м
[Sc Ac As Ci fib]
+11.6 +10.6 94 +9 +9 1014.4 1011.3
03 22.08 ЮВ 5 20 км 10/0
[Ac As Ci fib]
+13.2 +11.8 91 +11 +11 1012.8 1009.7 +11.3
06 22.08 ЮВ 6 20 км 9/3 600 м
[Sc Ac trans Ci fib]
+15.2 +12.2 82 +14 +14 1011.1 1008.1
09 22.08 Ю 5 20 км 4/3 600 м
[Sc Ac trans Ci fib]
+12.8 +11.1 89 +11 +12 1010.7 1007.6
12 22.08 З 6 2000 м дымка 10/10 210 м
[St]
+10.6 +10.6 100 +7 +7 1010.7 1007.6
15 22.08 З 8-11
{12}
2000 м дымка 10/10 270 м
[St]
+9.3 +9.3 100 +5 +5 1011.1 1008.0 +16.9
18 22.08 З 6
{11}
2000 м дымка {ливн. осадки} 10/10 240 м
[St]
+8.7 +8.7 100 +5 +5 1011.5 1008.4
21 22.08 З 6
{10}
4000 м дымка 4/3 600 м
[Sc Ac trans]
+9.2 +9.1 99 +5 +5 1011.4 1008.3
00 23.08 З 6 1000 м дымка 10/10 210 м
[St]
+9.0 +9.0 100 +5 +5 1011.1 1008.0
03 23.08 З 4 500 м слаб. морось {туман} туман ?/? +8.7 +8.7 100 +5 +5 1010.8 1007.7 +7.2 0.0
06 23.08 ЮЗ 4 500 м туман ?/? +8.7 +8.7 100 +5 +5 1010.5 1007.4
09 23.08 З 3 2000 м дымка {туман} 10/10 210 м
[St]
+9.2 +9.2 100 +7 +7 1010.1 1007.0
12 23.08 З 2 2000 м дымка {туман} 10/10 210 м
[St]
+9.5 +9.5 100 +8 +8 1010.0 1006.9
15 23.08 С 4 4000 м дымка 10/10 210 м
[St]
+8.7 +8.7 100 +5 +5 1009.6 1006.5 +9.5 0.0
18 23.08 С 3 4000 м дымка 9/9 270 м
[St]
+6.3 +6.3 100 +3 +3 1009.8 1006.7
21 23.08 СВ 2 4000 м дымка 8/3 600 м
[Sc Ac trans]
+4.6 +4.6 100 +2 +2 1010.0 1006.8
00 24.08 С 4 4000 м дымка 10/10 700 м
[Sc]
+6.8 +6.0 95 +3 +3 1010.1 1007.0
03 24.08 С 5 20 км 10/10 720 м
[Sc]
+7.0 +5.0 87 +3 +3 1010.7 1007.5 +4.6
06 24.08 С 7
{10}
20 км 10/10 800 м
[Sc]
+7.2 +4.3 82 +3 +3 1010.9 1007.8
09 24.08 СЗ 7
{10}
20 км 10/10 750 м
[Sc]
+7.1 +4.7 85 +2 +2 1011.6 1008.5
12 24.08 СЗ 7 20 км 10/10 800 м
[Sc]
+7.1 +5.2 88 +2 +2 1012.0 1008.9
15 24.08 СЗ 8
{11}
20 км 10/10 660 м
[Sc]
+6.6 +4.7 88 +1 +1 1012.5 1009.4 +7.4
18 24.08 СЗ 7
{11}
20 км 10/10 800 м
[Sc]
+5.8 +4.4 91 0 0 1012.7 1009.6
21 24.08 С 4
{10}
4000 м дымка 10/10 660 м
[Sc]
+4.4 +4.3 99 -0 -0 1013.0 1009.8
00 25.08 С 4 2000 м слаб. ливневой дождь 10/10 750 м
[Cb calv]
+4.1 +4.1 100 -1 -1 1013.3 1010.1
03 25.08 С 5 4000 м дымка {ливн. осадки} 9/9 1000 м
[Sc]
+4.5 +4.1 97 -1 -1 1013.3 1010.3 +3.7 0.4
06 25.08 С 6 4000 м дымка {ливн. осадки} 9/9 720 м
[Cb cap]
+5.6 +5.3 98 0 +1 1014.1 1010.9
09 25.08 СЗ 4
{10}
20 км 8/8 1110 м
[Sc diur, vesp]
+6.7 +4.8 88 +3 +4 1014.2 1011.1
12 25.08 СЗ 5 20 км 8/8 1000 м
[Cb cap]
+6.6 +4.2 85 +2 +3 1014.6 1011.5
15 25.08 СЗ 5 20 км 8/8 1110 м
[Cb cap Ci fib]
+5.2 +3.5 89 +1 +1 1015.1 1011.9 +7.0
18 25.08 С 4 4000 м дымка 10/10 930 м
[Cb calv]
+4.8 +4.8 100 0 0 1015.4 1012.2
21 25.08 С 4 4000 м дымка 9/9 1170 м
[Cb cap]
+3.3 +3.3 100 -2 -2 1015.5 1012.3
00 26.08 СЗ 1 20 км 10/10 1000 м
[Cb cap]
+3.4 +2.5 94 +2 +2 1015.9 1012.7
03 26.08 С 2 20 км 8/8 1000 м
[Cb cap]
+5.3 +2.5 82 +3 +3 1015.9 1012.8 +3.0

 

Местоположение метеостанции Марресаля (Ямало-Ненецкий АО, Россия): широта 69.71 долгота 66.80 высота над уровнем моря 26 м.

В архиве по умолчанию представлена погода в Марресале за последнюю неделю. Архивные данные за месяц целиком и за предыдущие месяцы, начиная с января 2011 года, Вы можете получить, выбрав интересующий диапазон дат из раскрывающегося списка и нажав кнопку "Ввод!".


*Определитесь, кто Вы:
робот инопланетянин человек

Внимание! Время в таблицах - всемирное. Для получения местного времени необходимо прибавить поправку, которая равна 5 ч.

Смотрите также архив погоды в соседних городах и на ближайших метеорологических станциях:

Погода в Усть-Каре (Ненецкий АО, Россия) (89 км)
Погода в Амдерме (Ненецкий АО, Россия) (197 км)
Погода в Сеяхе (Ямало-Ненецкий АО, Россия) (224 км)
Погода на Мысе Белый Нос (Ненецкий АО, Россия) (255 км)
Погода в Тамбее (Ямало-Ненецкий АО, Россия) (270 км)
Погода в Воркуте (Коми, Россия) (273 км)
Погода в Имени Федорова (Ненецкий АО, Россия) (304 км)
Погода в Елецкой (Коми, Россия) (316 км)
Погода в Белоярске (Ямало-Ненецкий АО, Россия) (321 км)
Погода в Харпе (Ямало-Ненецкий АО, Россия) (326 км)

Пояснения к столбцам:

Ветер - указаны скорость ветра в м/с - средняя за 10 мин, порывы в срок и между сроками (в фигурных скобках) и направление, откуда дует ветер: С - северный, СВ - северо-восточный, В - восточный, ЮВ - юго-восточный, Ю - южный, ЮЗ - юго-западный, З - западный, СЗ - северо-западный.
Видимость - горизонтальная дальность видимости в метрах или километрах. При видимости от 1 до 10 км при отсутствии осадков обычно наблюдается дымка, при ухудшении видимости до 1 км и менее - туман. В сухую погоду видимость может ухудшаться дымом, пылью или мглою.
Явления - указаны атмосферные явления, наблюдавшиеся в срок или в последний час перед сроком; фигурными скобками обозначены явления, наблюдавшиеся между сроками (за 1-3 часа до срока); квадратными скобками обозначены град или гололедные отложения с указанием их диаметра в мм.
Облачность - указаны через наклонную черту общая и нижняя облачность в баллах и высота нижней границы облаков в метрах; квадратными скобками обозначены формы облаков: Ci - перистые, Cs - перисто-слоистые, Cc - перисто-кучевые, Ac - высококучевые, As - высокослоистые, Sc - слоисто-кучевые, Ns - слоисто-дождевые, Cu - кучевые, Cb - кучево-дождевые. Подробнее классификацию облаков см. в Атласе облаков (PDF).
T - Температура воздуха - температура, измеренная на высоте 2 м над землей.
Td - Температура точки росы - температура, при понижении до которой содержащийся в воздухе водяной пар достигнет насыщения.
f - Относительная влажность воздуха - влажноcть воздуха, измеренная на высоте 2 м над землей.
Te - Эффективная температура - температура, которую ощущает одетый по сезону человек в тени. Характеристика душности погоды. При расчете учитывается влияние влажности воздуха и скорости ветра на теплоощущения человека.
Tes - Эффективная температура на солнце - температура, которую ощущает человек, с поправкой на солнечный нагрев. Характеристика знойности погоды. Зависит от высоты солнца над горизонтом, облачности и скорости ветра. Ночью, в пасмурную погоду, а также при ветре 12 м/с и более поправка равна нулю.
P - Атмосферное давление - приведенное к уровню моря атмосферное давление.
Po - Атмосферное давление - измеренное на уровне метеостанции атмосферное давление.
Tmin - Минимальная температура - минимум температуры воздуха на высоте 2 м над землей.
Tmax - Максимальная температура - максимум температуры воздуха на высоте 2 м над землей.
R - Количество осадков - Количество выпавших осадков за период времени, мм. При наведении курсора мыши на число - период времени, за который выпало указанное количество осадков.
R24 - Количество осадков - Количество выпавших осадков за 24 часа, мм.
S - Снежный покров - Высота снежного покрова, см. При наведении курсора мыши на число - состояние снежного покрова и степень покрытия местности в баллах.